Weather History for Pine Belt, MS

Change the Weather History Date:

Monday, October 17, 2011

  Actual Average Record
Temperature  
Mean Temperature 67 °F -  
Max Temperature 84 °F 75 °F 89 °F (2007)
Min Temperature 50 °F 52 °F 41 °F (2001)
Cooling Degree Days 2    
Growing Degree Days 17 (Base 50)    
Moisture  
Dew Point 51 °F    
Average Humidity 58    
Maximum Humidity 77    
Minimum Humidity 29    
Precipitation  
Precipitation 0.00 in - - ()
Sea Level Pressure  
Sea Level Pressure 29.96 in    
Wind  
Wind Speed 1 mph (SSE)    
Max Wind Speed 10 mph    
Max Gust Speed -    
Visibility 10 miles    
Events      
Averages and records for this station are not official NWS values.
T = Trace of Precipitation, MM = Missing Value Source: NWS Daily Summary

Daily Weather History Graph

Daily Weather History Graph

Search for Another Location

Airport:

Trip Planner

Search our weather history database for the weather conditions in past years. The results will help you decide how hot, cold, wet, or windy it might be!

Date:

Astronomy

Oct. 17, 2011 Rise Set
Actual Time 7:01 AM CDT 6:23 PM CDT
Civil Twilight 6:37 AM CDT 6:47 PM CDT
Nautical Twilight 6:08 AM CDT 7:16 PM CDT
Astronomical Twilight 5:40 AM CDT 7:44 PM CDT
Moon 10:18 PM CDT (10/17) 11:52 AM CDT (10/17)
Length of Visible Light 12h 10m
Length of Day
11h 21m
Waning Gibbous, 74% of the Moon is Illuminated
Oct 17
Waning Gibbous
Oct 19
Last Quarter
Oct 26
New
Nov 2
First Quarter
Nov 10
Full

Hourly Weather History & Observations

Time (CDT) Temp. Heat Index Dew Point Humidity Pressure Visibility Wind Dir Wind Speed Gust Speed Precip Events Conditions
12:15 AM 55.4 °F - 48.2 °F 77% 30.04 in 10.0 mi Calm Calm - N/A   Clear
12:35 AM 55.4 °F - 48.2 °F 77% 30.03 in 10.0 mi Calm Calm - N/A   Clear
12:55 AM 55.4 °F - 46.4 °F 72% 30.03 in 10.0 mi Calm Calm - N/A   Clear
1:15 AM 55.4 °F - 46.4 °F 72% 30.03 in 10.0 mi Calm Calm - N/A   Clear
1:35 AM 55.4 °F - 48.2 °F 77% 30.03 in 10.0 mi Calm Calm - N/A   Clear
2:15 AM 53.6 °F - 46.4 °F 77% 30.02 in 10.0 mi Calm Calm - N/A   Clear
2:35 AM 53.6 °F - 46.4 °F 77% 30.01 in 8.0 mi Calm Calm - N/A   Clear
3:15 AM 53.6 °F - 46.4 °F 77% 30.01 in 9.0 mi Calm Calm - N/A   Clear
3:35 AM 53.6 °F - 44.6 °F 72% 30.01 in 10.0 mi Calm Calm - N/A   Clear
3:55 AM 53.6 °F - 44.6 °F 72% 30.01 in 9.0 mi Calm Calm - N/A   Clear
4:15 AM 51.8 °F - 44.6 °F 76% 30.01 in 9.0 mi Calm Calm - N/A   Clear
4:35 AM 51.8 °F - 44.6 °F 76% 30.00 in 8.0 mi Calm Calm - N/A   Clear
4:55 AM 51.8 °F - 44.6 °F 76% 30.00 in 8.0 mi Calm Calm - N/A   Clear
5:15 AM 51.8 °F - 44.6 °F 76% 30.00 in 8.0 mi Calm Calm - N/A   Clear
5:35 AM 51.8 °F - 44.6 °F 76% 30.01 in 8.0 mi Calm Calm - N/A   Clear
5:55 AM 51.8 °F - 42.8 °F 71% 30.00 in 8.0 mi Calm Calm - N/A   Clear
6:15 AM 51.8 °F - 42.8 °F 71% 30.00 in 9.0 mi Calm Calm - N/A   Clear
6:35 AM 51.8 °F - 42.8 °F 71% 30.00 in 5.0 mi Calm Calm - N/A   Clear
6:55 AM 51.8 °F - 44.6 °F 76% 30.00 in 7.0 mi Calm Calm - N/A   Clear
7:15 AM 50.0 °F - 42.8 °F 76% 30.00 in 4.0 mi Calm Calm - N/A   Clear
7:35 AM 51.8 °F - 44.6 °F 76% 30.00 in 10.0 mi Calm Calm - N/A   Clear
7:55 AM 53.6 °F - 46.4 °F 77% 30.01 in 10.0 mi Calm Calm - N/A   Clear
8:15 AM 59.0 °F - 50.0 °F 72% 30.01 in 10.0 mi Calm Calm - N/A   Clear
8:35 AM 60.8 °F - 51.8 °F 72% 30.02 in 10.0 mi Calm Calm - N/A   Clear
8:55 AM 62.6 °F - 51.8 °F 68% 30.02 in 10.0 mi Calm Calm - N/A   Clear
9:15 AM 64.4 °F - 53.6 °F 68% 30.03 in 10.0 mi Calm Calm - N/A   Clear
9:35 AM 68.0 °F - 53.6 °F 60% 30.02 in 10.0 mi Calm Calm - N/A   Clear
10:15 AM 75.2 °F - 55.4 °F 50% 30.02 in 10.0 mi Calm Calm - N/A   Clear
10:35 AM 77.0 °F - 55.4 °F 47% 30.02 in 10.0 mi Calm Calm - N/A   Clear
10:55 AM 78.8 °F - 53.6 °F 42% 30.01 in 10.0 mi Calm Calm - N/A   Clear
11:15 AM 78.8 °F - 51.8 °F 39% 30.01 in 10.0 mi South 3.5 mph - N/A   Clear
11:35 AM 80.6 °F - 51.8 °F 37% 30.00 in 10.0 mi East 4.6 mph - N/A   Clear
11:55 AM 82.4 °F - 51.8 °F 35% 29.99 in 10.0 mi ENE 4.6 mph - N/A   Clear
12:15 PM 82.4 °F - 51.8 °F 35% 29.98 in 10.0 mi ESE 6.9 mph - N/A   Clear
12:35 PM 82.4 °F - 48.2 °F 30% 29.97 in 10.0 mi SE 3.5 mph - N/A   Clear
12:55 PM 82.4 °F - 50.0 °F 32% 29.96 in 10.0 mi SSE 4.6 mph - N/A   Clear
1:15 PM 84.2 °F - 48.2 °F 29% 29.94 in 10.0 mi South 6.9 mph - N/A   Clear
1:55 PM 84.2 °F - 51.8 °F 33% 29.92 in 10.0 mi SE 10.4 mph - N/A   Clear
2:15 PM 84.2 °F - 51.8 °F 33% 29.91 in 10.0 mi South 5.8 mph - N/A   Clear
2:35 PM 84.2 °F - 51.8 °F 33% 29.90 in 10.0 mi South 9.2 mph - N/A   Clear
2:55 PM 84.2 °F - 51.8 °F 33% 29.89 in 10.0 mi ESE 4.6 mph - N/A   Clear
3:15 PM 84.2 °F 82.8 °F 53.6 °F 35% 29.88 in 10.0 mi SE 5.8 mph - N/A   Clear
3:35 PM 84.2 °F 82.8 °F 53.6 °F 35% 29.88 in 10.0 mi South 4.6 mph - N/A   Clear
3:55 PM 84.2 °F 83.0 °F 55.4 °F 37% 29.88 in 10.0 mi South 8.1 mph - N/A   Clear
4:15 PM 84.2 °F 83.0 °F 55.4 °F 37% 29.87 in 10.0 mi SE 9.2 mph - N/A   Clear
4:35 PM 84.2 °F 83.0 °F 55.4 °F 37% 29.87 in 10.0 mi SSE 5.8 mph - N/A   Clear
4:55 PM 84.2 °F 82.8 °F 53.6 °F 35% 29.87 in 10.0 mi ESE 9.2 mph - N/A   Clear
5:15 PM 84.2 °F 83.0 °F 55.4 °F 37% 29.86 in 10.0 mi SE 6.9 mph - N/A   Clear
5:35 PM 82.4 °F 81.7 °F 55.4 °F 39% 29.86 in 10.0 mi SE 5.8 mph - N/A   Clear
5:55 PM 80.6 °F 80.8 °F 57.2 °F 45% 29.86 in 10.0 mi SE 3.5 mph - N/A   Clear
6:15 PM 77.0 °F - 57.2 °F 50% 29.87 in 10.0 mi Calm Calm - N/A   Clear
6:35 PM 71.6 °F - 57.2 °F 60% 29.87 in 10.0 mi Calm Calm - N/A   Clear
6:55 PM 69.8 °F - 57.2 °F 64% 29.87 in 10.0 mi Calm Calm - N/A   Clear
7:15 PM 68.0 °F - 55.4 °F 64% 29.87 in 10.0 mi Calm Calm - N/A   Clear
7:35 PM 66.2 °F - 55.4 °F 68% 29.87 in 10.0 mi Calm Calm - N/A   Clear
8:15 PM 64.4 °F - 55.4 °F 73% 29.87 in 10.0 mi South 4.6 mph - N/A   Clear
8:35 PM 66.2 °F - 55.4 °F 68% 29.87 in 10.0 mi South 5.8 mph - N/A   Clear
8:55 PM 66.2 °F - 55.4 °F 68% 29.87 in 10.0 mi SSW 3.5 mph - N/A   Clear
9:15 PM 64.4 °F - 55.4 °F 73% 29.88 in 10.0 mi Calm Calm - N/A   Clear
9:35 PM 64.4 °F - 55.4 °F 73% 29.87 in 10.0 mi South 3.5 mph - N/A   Clear
10:15 PM 66.2 °F - 55.4 °F 68% 29.86 in 10.0 mi South 3.5 mph - N/A   Clear
10:35 PM 64.4 °F - 55.4 °F 73% 29.86 in 10.0 mi South 5.8 mph - N/A   Clear
10:55 PM 64.4 °F - 53.6 °F 68% 29.85 in 10.0 mi South 4.6 mph - N/A   Clear
11:15 PM 64.4 °F - 53.6 °F 68% 29.84 in 10.0 mi Calm Calm - N/A   Clear
11:35 PM 62.6 °F - 53.6 °F 72% 29.84 in 10.0 mi Calm Calm - N/A   Clear